Location: B�rgermoos
(47.6500°N, 9.0667°E)
Time: 08:50:20
(UTC+00:00)

Vanguard 3 - All Passes

Search period start: 24 July 2021 00:00
Search period end: 03 August 2021 00:00
Orbit: 508 x 3261 km, 33.4° (Epoch: 23 July)

Date Brightness Start Highest point End Pass type
(mag) Time Alt. Az. Time Alt. Az. Time Alt. Az.
24 Jul - 01:01:58 10° W 01:14:50 27° SW 01:23:55 10° SSE visible
24 Jul - 17:05:06 10° S 17:17:45 24° SE 17:31:23 10° E daylight
24 Jul - 19:14:10 10° SW 19:31:23 43° SSE 19:47:46 10° E visible
24 Jul - 21:27:41 10° WSW 21:46:17 50° S 22:00:53 10° ESE visible
24 Jul - 23:43:55 10° W 00:00:08 38° SSW 00:11:31 10° SE visible
25 Jul - 02:03:45 10° W 02:11:23 16° SW 02:17:31 10° SSW visible
25 Jul - 15:55:04 10° SSE 16:02:51 15° SE 16:11:20 10° ESE daylight
25 Jul - 17:59:58 10° SSW 18:15:18 36° SSE 18:31:34 10° E daylight
25 Jul - 20:11:38 10° WSW 20:29:52 50° S 20:46:06 10° ESE visible
25 Jul - 22:26:33 10° W 22:44:37 46° SSW 22:58:08 10° SE visible
26 Jul - 00:44:05 10° W 00:57:20 27° SW 01:07:01 10° SSE visible
26 Jul - 16:47:08 10° S 16:59:47 26° SE 17:14:10 10° E daylight
26 Jul - 18:56:29 10° SW 19:13:26 45° SSE 19:30:35 10° E daylight
26 Jul - 21:09:54 10° WSW 21:28:28 51° S 21:43:57 10° ESE visible
26 Jul - 23:25:59 10° W 23:42:29 37° SSW 23:54:38 10° SSE visible
27 Jul - 01:46:22 10° WSW 01:53:51 15° SW 02:00:04 10° SSW visible
27 Jul - 15:36:29 10° SSE 15:44:58 16° SE 15:54:37 10° E daylight
27 Jul - 17:42:22 10° SSW 17:57:20 38° SSE 18:14:12 10° E daylight
27 Jul - 19:54:01 10° WSW 20:11:57 51° S 20:28:59 10° ESE visible
27 Jul - 22:08:44 10° W 22:26:50 46° SSW 22:41:11 10° SE visible
28 Jul - 00:26:16 10° W 00:39:40 26° SW 00:49:55 10° S visible
28 Jul - 16:29:28 10° SSW 16:41:51 28° SE 16:56:44 10° E daylight
28 Jul - 18:39:01 10° SW 18:55:28 47° SSE 19:13:14 10° E daylight
28 Jul - 20:52:16 10° WSW 21:10:35 50° S 21:26:52 10° ESE visible
28 Jul - 23:08:09 10° W 23:24:42 36° SSW 23:37:36 10° SSE visible
29 Jul - 01:29:13 10° WSW 01:36:13 14° SW 01:42:15 10° SSW visible
29 Jul - 15:18:26 10° SSE 15:27:08 18° SE 15:37:30 10° E daylight
29 Jul - 17:24:58 10° SW 17:39:24 39° SSE 17:56:40 10° E daylight
29 Jul - 19:36:35 10° WSW 19:54:01 51° S 20:11:41 10° ESE visible
29 Jul - 21:51:03 10° W 22:08:58 45° SSW 22:24:05 10° SE visible
30 Jul - 00:08:35 10° W 00:21:55 24° SW 00:32:35 10° S visible
30 Jul - 16:12:03 10° SSW 16:23:59 30° SE 16:39:07 10° E daylight
30 Jul - 18:21:44 10° SW 18:37:32 48° SSE 18:55:43 10° E daylight
30 Jul - 20:34:46 10° WSW 20:52:39 50° S 21:09:36 10° ESE visible
30 Jul - 22:50:27 10° W 23:06:51 34° SSW 23:20:21 10° SSE visible
31 Jul - 01:12:28 10° WSW 01:18:28 13° SW 01:23:53 10° SSW visible
31 Jul - 15:00:44 10° S 15:09:22 19° SE 15:20:05 10° E daylight
31 Jul - 17:07:48 10° SW 17:21:31 41° SSE 17:38:58 10° E daylight
31 Jul - 19:19:18 10° WSW 19:36:05 51° S 19:54:16 10° ESE visible
31 Jul - 21:33:30 10° W 21:51:02 43° SSW 22:06:48 10° SE visible
31 Jul - 23:51:05 10° W 00:04:04 23° SW 00:15:00 10° S visible
01 Aug - 15:54:52 10° SSW 16:06:13 31° SE 16:21:21 10° E daylight
01 Aug - 18:04:38 10° SW 18:19:39 49° SSE 18:38:05 10° ESE daylight
01 Aug - 20:17:27 10° WSW 20:34:42 49° SSW 20:52:11 10° SE visible
01 Aug - 22:32:55 10° W 22:48:55 33° SW 23:02:53 10° SSE visible
02 Aug - 00:56:35 10° WSW 01:00:40 11° SW 01:04:31 10° SW visible
02 Aug - 14:43:22 10° S 14:51:43 20° SE 15:02:30 10° E daylight
02 Aug - 16:50:47 10° SW 17:03:43 42° SSE 17:21:09 10° E daylight
02 Aug - 19:02:11 10° WSW 19:18:10 51° S 19:36:40 10° ESE visible
02 Aug - 21:16:07 10° W 21:33:04 41° SSW 21:49:17 10° SE visible
